Regional Weather Roundup
Issued by NWS

Home | Current Version | Previous Version | Graphics & Text | Print | Product List | Glossary On
Versions: 1 2 3 4 5 6 7 8 9 10 11 12 13 14 15 16 17 18 19 20 21 22 23 24 25 26 27 28 29 30 31 32 33 34 35 36 37 38 39 40 41 42 43 44 45 46 47 48 49 50
000
ASUS43 KMKX 100611
RWRWI

WISCONSIN REGIONAL WEATHER ROUNDUP
NATIONAL WEATHER SERVICE MILWAUKEE/SULLIVAN WI
1200 AM CST WED FEB 10 2016

NOTE: "FAIR" INDICATES FEW OR NO CLOUDS BELOW 12,000 FEET WITH NO
SIGNIFICANT WEATHER AND/OR OBSTRUCTIONS TO VISIBILITY.

WIZ001-002-006>008-014>016-023>028-100700-
NORTHWEST WISCONSIN

CITY           SKY/WX    TMP DP  RH WIND       PRES   REMARKS
SUPERIOR ARPT  CLOUDY     3  -5  69 N8        30.16R WCI -11
6HR MIN TEMP:   3; 6HR MAX TEMP:  10;

ASHLAND        LGT SNOW   6   1  80 N7        30.08F WCI  -6
6HR MIN TEMP:   6; 6HR MAX TEMP:  11; 6HR PCP: TRACE;

HAYWARD        CLOUDY     2  -3  80 NW3       30.04F
6HR MIN TEMP:   2; 6HR MAX TEMP:   9; 6HR PCP: TRACE;

SIREN          CLEAR      2  -6  66 N7        30.12S WCI -10
6HR MIN TEMP:   2; 6HR MAX TEMP:  11;

CUMBERLAND     CLEAR      1  -8  66 N12       30.07S WCI -15
RICE LAKE      CLEAR      3  -6  65 NW5       30.09F WCI  -7
6HR MIN TEMP:   3; 6HR MAX TEMP:  12;

CHETEK         CLEAR      1  -6  70 MISG      30.07F
6HR MIN TEMP:   1; 6HR MAX TEMP:  10;

LADYSMITH      CLOUDY     6   0  78 NW7       30.04S WCI  -6
6HR MIN TEMP:   6; 6HR MAX TEMP:  11;

EAU CLAIRE     CLEAR      4  -7  60 NW8       30.08S WCI  -9
6HR MIN TEMP:   4; 6HR MAX TEMP:  12;

MENOMONIE      CLEAR      6  -6  57 NW9       30.10S WCI  -8
6HR MIN TEMP:   6; 6HR MAX TEMP:  14;

NEW RICHMOND   CLOUDY     3  -6  68 NW7       30.11S WCI -10
6HR MIN TEMP:   2; 6HR MAX TEMP:  11;

OSCEOLA        CLEAR      6  -4  66 NW8       30.16S WCI  -7
6HR MIN TEMP:   5; 6HR MAX TEMP:  12;

$$

WIZ003>005-009-010-017-018-100700-
NORTH CENTRAL WISCONSIN

CITY           SKY/WX    TMP DP  RH WIND       PRES   REMARKS
MANITOWISH WTR CLOUDY     5   0  79 N6        29.93F WCI  -6
6HR MIN TEMP:   5; 6HR MAX TEMP:   8;

ARBOR VITAE    CLOUDY     9   2  72 N13       29.92F WCI  -7
6HR MIN TEMP:   9; 6HR MAX TEMP:  11;

WOODRUFF       CLOUDY     9   2  72 N13       29.92F WCI  -7
6HR MIN TEMP:   9; 6HR MAX TEMP:  11;

RHINELANDER    CLOUDY     7  -2  66 N10G20    29.91S WCI  -8
6HR MIN TEMP:   7; 6HR MAX TEMP:   9; 6HR PCP: TRACE;

EAGLE RIVER    CLOUDY     6  -2  69 N9G17     29.90F WCI  -8
LAND O LAKES   LGT SNOW   6   0  78 N14G20    29.91S WCI -11
6HR MIN TEMP:   6; 6HR MAX TEMP:   9;

PHILLIPS       CLOUDY     5  -1  76 NW7       29.96F WCI  -7
6HR MIN TEMP:   5; 6HR MAX TEMP:   8;

TOMAHAWK       CLOUDY     7   1  76 NW6       29.94S WCI  -4
6HR MIN TEMP:   7; 6HR MAX TEMP:   9;

MEDFORD        CLOUDY     6  -1  71 NW12      29.95F WCI -10
6HR MIN TEMP:   6; 6HR MAX TEMP:   9;

MERRILL        CLOUDY     8   1  72 NW7       29.96S WCI  -3
6HR MIN TEMP:   8; 6HR MAX TEMP:  10;

$$

WIZ029-030-035-036-043>047-100700-
CENTRAL WISCONSIN

CITY           SKY/WX    TMP DP  RH WIND       PRES   REMARKS
WAUSAU         CLOUDY    10   0  63 NW10      29.94S WCI  -4
6HR MIN TEMP:  10; 6HR MAX TEMP:  12; 6HR PCP: TRACE;

MOSINEE        CLOUDY    10   1  67 NW12G20   29.96S WCI  -4
MARSHFIELD     CLOUDY     9  -3  58 N14       29.97S WCI  -7
6HR MIN TEMP:   9; 6HR MAX TEMP:  11;

STEVENS POINT  CLOUDY     9  -2  60 N12G20    29.97S WCI  -6
6HR MIN TEMP:   9; 6HR MAX TEMP:  11;

WAUPACA        CLOUDY    14   2  59 NW6       29.98R WCI   5
6HR MIN TEMP:  14; 6HR MAX TEMP:  18;

WAUTOMA        CLOUDY    11   0  61 NW10      30.00R WCI  -2
6HR MIN TEMP:  11; 6HR MAX TEMP:  14; 6HR PCP: TRACE;

WISC RAPIDS    CLOUDY    10  -2  58 N13       30.00S WCI  -5
6HR MIN TEMP:  10; 6HR MAX TEMP:  13; 6HR PCP: TRACE;

CAMP DOUGLAS   CLOUDY     7   1  78 NW9       30.02S WCI  -7
6HR MIN TEMP:   3; 6HR MAX TEMP:  10; 6HR PCP: TRACE;

$$

WIZ011>013-019>022-031-037>040-048>050-100700-
NORTHEAST WISCONSIN

CITY           SKY/WX    TMP DP  RH WIND       PRES   REMARKS
ANTIGO         CLOUDY     8   0  70 N13       29.91R WCI  -8
6HR MIN TEMP:   8; 6HR MAX TEMP:  10;

SHAWANO        CLOUDY    14   1  55 N8        29.96R WCI   3
6HR MIN TEMP:  14; 6HR MAX TEMP:  18;

OCONTO         CLEAR     10  -1  60 NW8       29.94R WCI  -2
6HR MIN TEMP:  10; 6HR MAX TEMP:  15;

STURGEON BAY   CLOUDY    10   0  61 NW17      29.91S WCI  -7
6HR MIN TEMP:  10; 6HR MAX TEMP:  14;

GREEN BAY      CLEAR     11  -1  58 NW13      29.94R WCI  -4
6HR MIN TEMP:  10; 6HR MAX TEMP:  16; 6HR PCP: TRACE;

MANITOWOC      CLOUDY    12   3  67 NW16G25   29.91S WCI  -5
6HR MIN TEMP:  12; 6HR MAX TEMP:  16; 6HR PCP: TRACE;

APPLETON       PTCLDY    12   0  57 W13       29.92R WCI  -3
CLINTONVILLE   CLOUDY    14   0  52 N9        29.95S WCI   2
OSHKOSH        MOCLDY    11   0  61 NW12      29.94S WCI  -3
6HR MIN TEMP:  11; 6HR MAX TEMP:  17; 6HR PCP: TRACE;

$$

WIZ032>034-041-042-053>061-100700-
SOUTHWEST WISCONSIN

CITY           SKY/WX    TMP DP  RH WIND       PRES   REMARKS
LA CROSSE      CLEAR      5  -5  63 NW10      30.10R WCI -10
6HR MIN TEMP:   2; 6HR MAX TEMP:  11;

SPARTA         CLEAR      1  -3  81 NW7       30.07S WCI -12
6HR MIN TEMP:  -8; 6HR MAX TEMP:  11;

VIROQUA        CLEAR      5  -5  64 NW13      30.02R WCI -12
6HR MIN TEMP:   3; 6HR MAX TEMP:   9;

BOSCOBEL       PTCLDY     2  -4  76 CALM      30.08R
6HR MIN TEMP:   2; 6HR MAX TEMP:  14;

PRAIRIE DU CHI CLEAR      8  -4  59 NW7       30.09S WCI  -3
6HR MIN TEMP:   8; 6HR MAX TEMP:  13;

PLATTEVILLE    CLEAR      6  -1  72 NW7       30.03R WCI  -6
6HR MIN TEMP:   6; 6HR MAX TEMP:  13;

$$

WIZ056-057-062-063-064-067-068-100700-
SOUTH CENTRAL WISCONSIN

CITY           SKY/WX    TMP DP  RH WIND       PRES   REMARKS
REEDSBURG      CLOUDY     8   0  71 W6        30.02R WCI  -3
6HR MIN TEMP:   8; 6HR MAX TEMP:  11;

BARABOO/DELLS  CLOUDY    10   0  63 NW6       30.01R WCI   0
6HR MIN TEMP:   9; 6HR MAX TEMP:  12;

LONE ROCK      CLEAR      8  -2  63 W7        30.06R WCI  -3
6HR MIN TEMP:   8; 6HR MAX TEMP:  13;

MINERAL POINT  CLEAR      9   0  66 NW9       30.00S WCI  -5
MADISON        CLOUDY    10   2  69 N10       29.99R WCI  -4
6HR MIN TEMP:  10; 6HR MAX TEMP:  14;

MIDDLETON      CLOUDY    11   2  67 NW10      30.00R WCI  -2
6HR MIN TEMP:  11; 6HR MAX TEMP:  15;

WATERTOWN      CLOUDY    11   2  67 NW12      29.96R WCI  -4
6HR MIN TEMP:  10; 6HR MAX TEMP:  15;

MONROE         CLEAR      9   1  72 NW10      29.98R WCI  -6
JANESVILLE     MOCLDY    12   3  67 NW9       29.98R WCI   0
$$

WIZ051-052-058>065-066-070>072-100700-
SOUTHEAST WISCONSIN

CITY           SKY/WX    TMP DP  RH WIND       PRES   REMARKS
MILWAUKEE      MOCLDY    14   5  67 NW12      29.93S WCI   0
6HR MIN TEMP:  14; 6HR MAX TEMP:  17; 6HR PCP: TRACE;

WAUKESHA       PTCLDY    10   3  72 NW15      29.94R WCI  -6
MILWAUKEE/TIMM CLEAR     12   3  67 NW10      29.94R WCI  -1
RACINE         CLOUDY    14   5  67 NW9       29.94S WCI   2
6HR MIN TEMP:  14; 6HR MAX TEMP:  16; 6HR PCP: TRACE;

BURLINGTON     CLEAR     10   1  69 NW12      29.94S WCI  -5
6HR MIN TEMP:  10; 6HR MAX TEMP:  14;

KENOSHA        CLOUDY    14   4  64 NW13G23   29.92F WCI   0
6HR MIN TEMP:  14; 6HR MAX TEMP:  16; 6HR PCP: TRACE;

FOND DU LAC    PTCLDY    11   1  64 NW10      29.95S WCI  -3
6HR MIN TEMP:  11; 6HR MAX TEMP:  17; 6HR PCP: TRACE;

SHEBOYGAN      PTCLDY    12   1  61 NW12      29.91R WCI  -2
6HR MIN TEMP:  12; 6HR MAX TEMP:  17; 6HR PCP: TRACE;

WEST BEND      PTCLDY    12   3  67 NW14      29.92R WCI  -3
JUNEAU         CLOUDY    10   1  67 NW9G16    29.96R WCI  -3
6HR MIN TEMP:  10; 6HR MAX TEMP:  15;

$$

LSZ147-162-100700-
LAKE SUPERIOR

STATION/POSITION TIME  TEMP    WIND        PRES    WAVE
                       AIR SEA DIR/SP/G            HT/PER
                 (UTC) (F)     (DEG/KT/KT) (MB)    (FT/S)
DEVILS ISLAND    0600    6      10/ 21/ 24 1020.9F
PORT WING        0500    8     340/ 12/ 17 1020.0F
SAXON HARBOR     0500   11                 1017.9S
$$

LMZ867-665-643>646-100700-
LAKE MICHIGAN

STATION/POSITION TIME  TEMP    WIND        PRES    WAVE
                       AIR SEA DIR/SP/G            HT/PER
                 (UTC) (F)  C1F1C2F2C3F3C4F4C5F5C6F6C7F7C8M1C9M2Ca!


USA.gov is the U.S. government's official web portal to all federal, state and local government web resources and services.